This is the latest recevied weather packets stored in our database for station/object DM5KA-13. If no packets are shown the sender has not sent any weather packets the latest 10 day(s).
| Time | Temp. | Humidity | Pressure | Rain* | Wind** | Luminosity | Snow |
|---|---|---|---|---|---|---|---|
| 1778080819 | 20° C | 61% | 1006.6 hPa | 0 mm | 0.45 m/s, 0° | - | - |
| 1778080519 | 20° C | 60% | 1006.5 hPa | 0 mm | 0.45 m/s, 0° | - | - |
| 1778080219 | 20° C | 60% | 1006.5 hPa | 0 mm | 0.45 m/s, 0° | - | - |
| 1778079919 | 20° C | 60% | 1006.5 hPa | 0 mm | 0.89 m/s, 0° | - | - |
| 1778079619 | 20° C | 61% | 1006.5 hPa | 0 mm | 0.45 m/s, 0° | - | - |
| 1778079319 | 20° C | 61% | 1006.5 hPa | 0 mm | 0.45 m/s, 0° | - | - |
| 1778079030 | 20° C | 60% | 1006.4 hPa | 0 mm | 0.89 m/s, 0° | - | - |
| 1778078706 | 20° C | 56% | 1006.5 hPa | 0 mm | 0.45 m/s, 0° | - | - |
| 1778078406 | 20° C | 58% | 1006.4 hPa | 0 mm | 0.45 m/s, 0° | - | - |
| 1778078107 | 20° C | 57% | 1006.4 hPa | 0 mm | 0 m/s | - | - |
| 1778077807 | 20° C | 58% | 1006.3 hPa | 0 mm | 0.45 m/s, 0° | - | - |
| 1778077506 | 20° C | 57% | 1006.4 hPa | 0 mm | 0.45 m/s, 0° | - | - |
| 1778077206 | 21.11° C | 55% | 1006.4 hPa | 0 mm | 0 m/s | - | - |
| 1778076906 | 21.11° C | 51% | 1006.4 hPa | 0 mm | 0.45 m/s, 0° | - | - |
| 1778076606 | 22.22° C | 47% | 1006.4 hPa | 0 mm | 0 m/s | - | - |
| 1778076306 | 21.11° C | 48% | 1006.5 hPa | 0 mm | 0.45 m/s, 0° | - | - |
| 1778076006 | 21.11° C | 51% | 1006.6 hPa | 0 mm | 0 m/s | - | - |
| 1778075706 | 21.11° C | 51% | 1006.9 hPa | 0 mm | 0.89 m/s, 0° | - | - |
| 1778075406 | 22.22° C | 48% | 1006.9 hPa | 0 mm | 0.45 m/s, 0° | - | - |
| 1778075106 | 22.22° C | 46% | 1006.9 hPa | 0 mm | 0.45 m/s, 0° | - | - |
| 1778074818 | 22.78° C | 44% | 1006.8 hPa | 0 mm | 0.45 m/s, 0° | - | - |
| 1778074518 | 22.22° C | 45% | 1006.7 hPa | 0 mm | 0.45 m/s, 0° | - | - |
| 1778074219 | 22.22° C | 46% | 1006.7 hPa | 0 mm | 0.45 m/s, 0° | - | - |
| 1778073918 | 22.22° C | 45% | 1006.7 hPa | 0 mm | 0.45 m/s, 0° | - | - |
| 1778073618 | 22.22° C | 44% | 1006.8 hPa | 0 mm | 0.45 m/s, 0° | - | - |
* Rain latest hour (hover to see other rain measurements)
** Current wind speed in m/s (hover to see current wind gust speed)